Weather History for Winona, MN

Change the Weather History Date:

Sunday, January 6, 2013

  Actual Average Record
Temperature  
Mean Temperature 17 °F -  
Max Temperature 24 °F 26 °F 44 °F (2012)
Min Temperature 10 °F 14 °F -18 °F (2014)
Degree Days  
Heating Degree Days 48    
Moisture  
Dew Point 12 °F    
Average Humidity 72    
Maximum Humidity 80    
Minimum Humidity 58    
Precipitation  
Precipitation 0.00 in - - ()
Sea Level Pressure  
Sea Level Pressure 30.16 in    
Wind  
Wind Speed 6 mph (WNW)    
Max Wind Speed 15 mph    
Max Gust Speed 23 mph    
Visibility 10 miles    
Events      
Averages and records for this station are not official NWS values.
T = Trace of Precipitation, MM = Missing Value Source: NWS Daily Summary

Daily Weather History Graph

Daily Weather History Graph

Search for Another Location

Airport:

Trip Planner

Search our weather history database for the weather conditions in past years. The results will help you decide how hot, cold, wet, or windy it might be!

Date:

Astronomy

Jan. 06, 2013 Rise Set
Actual Time 7:41 AM CST 4:44 PM CST
Civil Twilight 7:08 AM CST 5:17 PM CST
Nautical Twilight 6:32 AM CST 5:53 PM CST
Astronomical Twilight 5:57 AM CST 6:28 PM CST
Moon 1:51 AM CST (1/6) 12:15 PM CST (1/6)
Length of Visible Light 10h 08m
Length of Day
9h 02m
Waning Crescent, 33% of the Moon is Illuminated
Jan 6
Waning Crescent
Jan 11
New
Jan 18
First Quarter
Jan 26
Full
Feb 3
Last Quarter

Hourly Weather History & Observations

Time (CST) Temp. Windchill Dew Point Humidity Pressure Visibility Wind Dir Wind Speed Gust Speed Precip Events Conditions
12:14 AM 19.4 °F 9.5 °F 12.2 °F 74% 29.99 in 10.0 mi WNW 8.1 mph - N/A   Clear
12:34 AM 19.4 °F 12.8 °F 12.2 °F 74% 29.98 in 10.0 mi WNW 4.6 mph - N/A   Clear
12:54 AM 19.4 °F 10.4 °F 12.2 °F 74% 29.98 in 10.0 mi WNW 6.9 mph - N/A   Clear
1:14 AM 19.4 °F 11.5 °F 12.2 °F 74% 29.99 in 10.0 mi WNW 5.8 mph - N/A   Clear
1:33 AM 19.4 °F 10.4 °F 12.2 °F 74% 30.00 in 10.0 mi NW 6.9 mph - N/A   Scattered Clouds
1:54 AM 19.4 °F 9.5 °F 12.2 °F 74% 30.01 in 10.0 mi NW 8.1 mph - N/A   Scattered Clouds
2:13 AM 19.4 °F 10.4 °F 14.0 °F 80% 30.02 in 10.0 mi WNW 6.9 mph - N/A   Overcast
2:34 AM 19.4 °F 12.8 °F 14.0 °F 80% 30.02 in 10.0 mi NW 4.6 mph - N/A   Overcast
2:54 AM 19.4 °F 10.4 °F 14.0 °F 80% 30.03 in 10.0 mi WNW 6.9 mph - N/A   Overcast
3:13 AM 21.2 °F 12.6 °F 14.0 °F 74% 30.03 in 10.0 mi WNW 6.9 mph - N/A   Overcast
3:34 AM 21.2 °F 13.6 °F 14.0 °F 74% 30.04 in 10.0 mi NW 5.8 mph - N/A   Overcast
4:13 AM 21.2 °F 11.7 °F 15.8 °F 80% 30.04 in 10.0 mi NW 8.1 mph - N/A   Overcast
4:34 AM 21.2 °F 10.1 °F 15.8 °F 80% 30.05 in 10.0 mi NW 10.4 mph - N/A   Overcast
4:54 AM 21.2 °F 8.9 °F 15.8 °F 80% 30.06 in 10.0 mi NW 12.7 mph - N/A   Overcast
5:34 AM 21.2 °F 9.5 °F 14.0 °F 74% 30.07 in 10.0 mi WNW 11.5 mph 17.3 mph N/A   Overcast
5:54 AM 21.2 °F 10.9 °F 14.0 °F 74% 30.08 in 10.0 mi NW 9.2 mph - N/A   Overcast
6:13 AM 21.2 °F 10.9 °F 15.8 °F 80% 30.09 in 10.0 mi NW 9.2 mph - N/A   Overcast
6:34 AM 21.2 °F 9.5 °F 15.8 °F 80% 30.10 in 10.0 mi NW 11.5 mph - N/A   Overcast
6:54 AM 21.2 °F 7.8 °F 14.0 °F 74% 30.11 in 10.0 mi NW 15.0 mph - N/A   Overcast
7:14 AM 19.4 °F 7.9 °F 14.0 °F 80% 30.12 in 10.0 mi NW 10.4 mph 20.7 mph N/A   Overcast
7:34 AM 19.4 °F 7.2 °F 14.0 °F 80% 30.13 in 10.0 mi NW 11.5 mph 23.0 mph N/A   Overcast
7:54 AM 19.4 °F 7.2 °F 14.0 °F 80% 30.15 in 10.0 mi NW 11.5 mph 20.7 mph N/A   Overcast
8:14 AM 19.4 °F 7.9 °F 14.0 °F 80% 30.16 in 10.0 mi NW 10.4 mph - N/A   Overcast
8:34 AM 19.4 °F 7.9 °F 12.2 °F 74% 30.17 in 10.0 mi NW 10.4 mph 20.7 mph N/A   Overcast
8:54 AM 19.4 °F 11.5 °F 12.2 °F 74% 30.17 in 10.0 mi WNW 5.8 mph - N/A   Scattered Clouds
9:14 AM 19.4 °F 10.4 °F 12.2 °F 74% 30.19 in 10.0 mi WNW 6.9 mph - N/A   Mostly Cloudy
9:34 AM 19.4 °F 11.5 °F 12.2 °F 74% 30.19 in 10.0 mi NW 5.8 mph - N/A   Overcast
9:54 AM 19.4 °F 7.9 °F 12.2 °F 74% 30.21 in 10.0 mi NNW 10.4 mph 16.1 mph N/A   Overcast
10:14 AM 19.4 °F 7.2 °F 12.2 °F 74% 30.22 in 10.0 mi NW 11.5 mph - N/A   Overcast
10:34 AM 19.4 °F 6.6 °F 12.2 °F 74% 30.23 in 10.0 mi NW 12.7 mph - N/A   Overcast
10:54 AM 19.4 °F 9.5 °F 12.2 °F 74% 30.22 in 10.0 mi NW 8.1 mph - N/A   Overcast
11:14 AM 21.2 °F 11.7 °F 12.2 °F 68% 30.22 in 10.0 mi NNW 8.1 mph - N/A   Mostly Cloudy
11:34 AM 21.2 °F - 12.2 °F 68% 30.22 in 10.0 mi Calm Calm - N/A   Scattered Clouds
11:53 AM 21.2 °F - 12.2 °F 68% 30.21 in 10.0 mi Calm Calm - N/A   Scattered Clouds
12:14 PM 23.0 °F 15.8 °F 12.2 °F 63% 30.20 in 10.0 mi NW 5.8 mph - N/A   Clear
12:34 PM 23.0 °F - 12.2 °F 63% 30.20 in 10.0 mi Calm Calm - N/A   Clear
12:53 PM 23.0 °F 15.8 °F 12.2 °F 63% 30.20 in 10.0 mi NW 5.8 mph - N/A   Clear
1:14 PM 23.0 °F 15.8 °F 12.2 °F 63% 30.20 in 10.0 mi WNW 5.8 mph - N/A   Clear
1:34 PM 24.8 °F 20.5 °F 12.2 °F 59% 30.20 in 10.0 mi WSW 3.5 mph - N/A   Clear
1:53 PM 23.0 °F 17.0 °F 12.2 °F 63% 30.21 in 10.0 mi SW 4.6 mph - N/A   Clear
2:14 PM 23.0 °F 14.7 °F 12.2 °F 63% 30.22 in 10.0 mi WSW 6.9 mph - N/A   Clear
2:34 PM 23.0 °F 15.8 °F 10.4 °F 59% 30.23 in 10.0 mi WSW 5.8 mph - N/A   Clear
2:53 PM 23.0 °F 17.0 °F 10.4 °F 59% 30.23 in 10.0 mi SW 4.6 mph - N/A   Clear
3:14 PM 23.0 °F 18.4 °F 10.4 °F 59% 30.22 in 10.0 mi SSW 3.5 mph - N/A   Clear
3:34 PM 23.0 °F - 10.4 °F 59% 30.23 in 10.0 mi Calm Calm - N/A   Clear
3:53 PM 23.0 °F 18.4 °F 10.4 °F 59% 30.24 in 10.0 mi WSW 3.5 mph - N/A   Clear
4:14 PM 21.2 °F 16.4 °F 8.6 °F 58% 30.24 in 10.0 mi WSW 3.5 mph - N/A   Clear
4:53 PM 19.4 °F - 8.6 °F 63% 30.24 in 10.0 mi Calm Calm - N/A   Clear
5:14 PM 19.4 °F - 8.6 °F 63% 30.24 in 10.0 mi Calm Calm - N/A   Clear
5:33 PM 19.4 °F - 8.6 °F 63% 30.24 in 10.0 mi Calm Calm - N/A   Clear
6:14 PM 19.4 °F - 8.6 °F 63% 30.24 in 10.0 mi Calm Calm - N/A   Clear
6:34 PM 17.6 °F - 8.6 °F 68% 30.25 in 10.0 mi Calm Calm - N/A   Clear
6:54 PM 15.8 °F - 6.8 °F 68% 30.24 in 10.0 mi Calm Calm - N/A   Clear
7:14 PM 17.6 °F - 8.6 °F 68% 30.24 in 10.0 mi Calm Calm - N/A   Clear
7:34 PM 15.8 °F - 8.6 °F 73% 30.24 in 10.0 mi Calm Calm - N/A   Clear
7:54 PM 14.0 °F - 6.8 °F 73% 30.24 in 10.0 mi Calm Calm - N/A   Clear
8:14 PM 14.0 °F - 6.8 °F 73% 30.24 in 10.0 mi Calm Calm - N/A   Clear
8:34 PM 10.4 °F - 5.0 °F 79% 30.23 in 10.0 mi Calm Calm - N/A   Clear
9:14 PM 10.4 °F - 5.0 °F 79% 30.22 in 10.0 mi Calm Calm - N/A   Clear
9:54 PM 14.0 °F - 8.6 °F 79% 30.22 in 10.0 mi Calm Calm - N/A   Clear
10:14 PM 14.0 °F - 8.6 °F 79% 30.22 in 10.0 mi Calm Calm - N/A   Clear
10:34 PM 14.0 °F 2.9 °F 8.6 °F 79% 30.20 in 10.0 mi SE 8.1 mph - N/A   Clear
10:54 PM 15.8 °F 6.1 °F 10.4 °F 79% 30.19 in 10.0 mi SE 6.9 mph - N/A   Clear
11:34 PM 15.8 °F 5.1 °F 10.4 °F 79% 30.17 in 10.0 mi ESE 8.1 mph - N/A   Clear
11:54 PM 17.6 °F 8.2 °F 10.4 °F 73% 30.17 in 10.0 mi SE 6.9 mph - N/A   Clear